AirNav   Jet Aviation Boston
 
 932 users online  

02VA The Greenhouse Airport
Culpeper, Virginia, USA

GOING TO CULPEPER?


FAA INFORMATION EFFECTIVE 19 JULY 2018

Location

FAA Identifier: 02VA
Lat/Long: 38-26-08.4580N / 077-51-25.9790W
38-26.140967N / 077-51.432983W
38.4356828 / -77.8572164
(estimated)
Elevation: 320 ft. / 98 m (estimated)
Variation: 09W (1985)
From city: 7 miles SE of CULPEPER, VA
Time zone: UTC -4 (UTC -5 during Standard Time)
Zip code: 22741

Airport Operations

Airport use: Private use. Permission required prior to landing
Activation date: 04/1983
Control tower: no
ARTCC: WASHINGTON CENTER
FSS: LEESBURG FLIGHT SERVICE STATION
Attendance: UNATNDD
Wind indicator: no
Segmented circle: no

Airport Communications

WX AWOS-3 at CJR (5 nm N): 119.325 (540-727-0523)
WX AWOS-3 at HWY (11 nm NE): 120.350 (540-788-4078)
WX AWOS-3 at OMH (14 nm SW): 118.075 (540-672-0505)
WX AWOS-3 at RMN (19 nm E): 126.325 (540-657-8283)

Nearby radio navigation aids

VOR radial/distance  VOR name  Freq  Var
CSNr184/12.3CASANOVA VORTAC116.3006W
BRVr293/24.5BROOKE VORTAC114.5009W
GVEr035/28.9GORDONSVILLE VORTAC115.6006W
LDNr153/30.0LINDEN VORTAC114.3006W
AMLr219/35.1ARMEL VOR/DME113.5008W

 
NDB name  Hdg/Dist  Freq  Var  ID
NAILR126/2.535110WMSQ -- ... --.-
SHANNON308/21.723710WEZF . --.. ..-.
CAVERNS128/32.924509WLUA .-.. ..- .-
DAVEE258/37.622309WDAA -.. .- .-

Airport Services

Runway Information

Runway 18/36

Dimensions: 3000 x 80 ft. / 914 x 24 m
Surface: turf
RUNWAY 18  RUNWAY 36
Traffic pattern: leftleft
Displaced threshold: no500 ft.
Obstructions: nonepline, marked

Airport Ownership and Management from official FAA records

Ownership: Privately-owned
Owner: JOE VAN WINGERDEN
21513 GERMANNA HWY
STEVENSBURG, VA 22741
Phone 540-399-1919
Manager: JOE VAN WINGERDEN
21513 GERMANNA HWY
STEVENSBURG, VA 22741
Phone 540-399-1919

Airport Operational Statistics

Aircraft based on the field: 1
Single engine airplanes: 1
    

Instrument Procedures

There are no published instrument procedures at 02VA.

Some nearby airports with instrument procedures:

KCJR - Culpeper Regional Airport (5 nm N)
KHWY - Warrenton-Fauquier Airport (11 nm NE)
KOMH - Orange County Airport (14 nm SW)
KRMN - Stafford Regional Airport (19 nm E)
KEZF - Shannon Airport (22 nm SE)
 
Loc | Ops | Rwys | IFR | FBO | Links
Com | Nav | Svcs | Stats | Notes


 
Area around 02VA (The Greenhouse Airport)
 
Road maps at: MapQuest Bing Google
 
Aerial photo
WARNING: Photo may not be current or correct
Aerial photo of 02VA (The Greenhouse Airport)
Photo taken 09-Jun-2012
looking north.

Do you have a better or more recent aerial photo of The Greenhouse Airport that you would like to share? If so, please send us your photo.

 
Sectional chart

 
Airport distance calculator
Flying to The Greenhouse Airport? Find the distance to fly.

From to 02VA

Sunrise and sunset
Times for 21-Jul-2018
 Local
(UTC-4)
 Zulu
(UTC)
Morning civil twilight05:3509:35
Sunrise06:0510:05
Sunset20:3000:30
Evening civil twilight21:0101:01

Current date and time
Zulu (UTC)  22-Jul-2018 01:39:09
Local (UTC-4)  21-Jul-2018 21:39:09
 
METAR
KHWY 
11nm NE 
220115Z AUTO 35007KT 10SM RA OVC011 20/17 A2973 RMK AO2 P0001 T01950171
KCJR 
14nm W 
220115Z AUTO 34008KT 7SM RA BKN010 BKN014 OVC020 19/18 A2975 RMK AO2 T01930179
KOMH 
14nm SW 
220115Z AUTO 33009G18KT 7SM RA OVC017 18/17 A2976 RMK AO2
KRMN 
19nm E 
220115Z AUTO 29013G18KT 5SM -RA SCT007 BKN016 OVC021 19/19 A2973 RMK AO2 P0005 T01920192
KEZF 
22nm SE 
220115Z AUTO 32008KT 10SM RA BKN006 OVC012 19/19 A2969 RMK AO2 T01920192
KGVE 
22nm SW 
220115Z AUTO 34008KT 290V020 5SM BR BKN026 OVC036 20/19 A2975 RMK AO1 T01960187
TAF
KNYG 
27nm E 
2115/2215 07012KT 9000 -SHRA BR BKN020 OVC040 QNH2970INS TEMPO 2115/2121 03012KT 4800 SHRA BR OVC015 TEMPO 2121/2203 36012G20KT FM220700 VRB06KT 9999 BKN015 QNH2974INS T19/2208Z T25/2215Z LAST NO AMDS AFT 2115/ NEXT 2221
KCHO 
33nm SW 
212038Z 2121/2218 02010G20KT P6SM VCSH BKN025 FM220000 02007KT P6SM BKN015 FM220500 00000KT 5SM BR BKN050 FM221100 00000KT 4SM BR OVC015 FM221500 VRB03KT P6SM OVC025
NOTAMs
Click for the latest NOTAMs
NOTAMs are issued by the DoD/FAA and will open in a separate window not controlled by AirNav.

 

 
 

Would you like to see your business listed on this page?

 If your business provides an interesting product or service to pilots, flight crews, aircraft, or users of the The Greenhouse Airport, you should consider listing it here.  To start the listing process, click on the button below
 
Add a business
 

Other Pages about The Greenhouse Airport

Update a link
 
Copyright © AirNav, LLC. All rights reserved. Privacy Policy  Contact